Location: Lewisville
(33.0462°N, 96.9942°W)
Time: 12:45:02
(UTC-06:00)

N. Korean satellite - Pass Details

Date: 30 December 2019
Orbit: 456 x 506 km, 97.2° (Epoch: 15 February)

Event Time Altitude Azimuth Distance (km) Brightness Sun altitude
Rises 06:12:25 0° 11° (N) 2,476 10.1 -16.0°
Reaches altitude 10° 06:14:27 10° 11° (N) 1,598 9.1 -15.5°
Maximum altitude 06:17:53 90° 113° (ESE) 461 6.4 -14.9°
Drops below altitude 10° 06:21:18 10° 192° (SSW) 1,594 9.3 -14.2°
Sets 06:23:20 0° 192° (SSW) 2,469 10.2 -13.8°
